This demonstration page uses our WeatherBlox Daily Observations layout. Learn more.

Left ArrowRight Arrow

34.74481, -87.66753

Hourly Observations for December 22, 2019

Temp ( °F °C ) Dew Point ( °F °C ) Humidity (%) Winds ( mph kmh ) Pressure ( in mb ) Visibility ( mi km ) Precip ( " mm )
12:41 am 00:41 Cloudy with Light Rain 47 8.3 44 6.7 90 90 ENE 6 9 30.33 1027 7 11 0.04 1.02
12:53 am 00:53 Cloudy with Light Rain 47 8.3 44 6.7 90 90 ENE 5 7 30.32 1027 8 13 0.05 1.27
1:17 am 01:17 Cloudy with Light Rain 47 8.3 44 6.7 90 90 E 6 9 30.33 1027 8 13 0.02 0.51
1:48 am 01:48 Cloudy with Rain 46 8 45 7 93 93 E 7 11 30.33 1027 7 11 0.07 1.78
1:53 am 01:53 Cloudy with Light Rain 47 8.3 44 6.7 90 90 E 6 9 30.31 1027 8 13 0.07 1.78
2:37 am 02:37 Cloudy with Light Rain 47 8.3 44 6.7 90 90 E 7 11 30.32 1027 10 16 0.02 0.51
2:53 am 02:53 Cloudy with Light Rain 47 8.3 44 6.7 90 90 E 7 11 30.30 1026 10 16 0.03 0.76
3:53 am 03:53 Cloudy with Light Rain 47 8.3 44 6.7 90 90 E 6 9 30.28 1025 9 14 0.02 0.51
4:53 am 04:53 Cloudy with Light Rain 47 8.3 44 6.7 90 90 E 5 7 30.27 1025 10 16 0.02 0.51
5:53 am 05:53 Cloudy with Light Rain 47 8.3 43 6.1 86 86 E 5 7 30.27 1025 10 16 0.02 0.51
6:53 am 06:53 Cloudy with Light Rain 46 7.8 44 6.7 93 93 ENE 6 9 30.27 1025 10 16 0.03 0.76
7:53 am 07:53 Cloudy with Light Rain 47 8.3 44 6.7 90 90 ENE 6 9 30.27 1025 10 16 0.04 1.02
8:53 am 08:53 Cloudy with Light Rain 47 8.3 44 6.7 90 90 ENE 8 13 30.25 1024 9 14 0.02 0.51
9:53 am 09:53 Cloudy with Rain 48 8.9 45 7.2 89 89 NE 7 11 30.25 1024 7 11 0.05 1.27
10:53 am 10:53 Cloudy with Rain 49 9.4 46 7.8 90 90 ENE 7 11 30.22 1023 5 8 0.08 2.03
11:53 am 11:53 Cloudy with Rain 50 10 47 8.3 89 89 NE 10 17 30.16 1022 7 11 0.13 3.30
12:53 pm 12:53 Cloudy with Light Rain 51 10.6 48 8.9 89 89 ENE 12 19 30.12 1020 10 16 0.04 1.02
1:53 pm 13:53 Cloudy with Rain 51 10.6 48 8.9 89 89 NE 13 20 30.09 1019 6 10 0.13 3.30
2:53 pm 14:53 Cloudy with Light Rain 52 11.1 48 8.9 86 86 NE 13 20 30.07 1018 10 16 0.13 3.30
3:53 pm 15:53 Cloudy with Rain 52 11.1 49 9.4 89 89 NE 12 19 30.05 1018 6 10 0.15 3.81
4:53 pm 16:53 Cloudy with Light Rain 52 11.1 49 9.4 89 89 NE 12 19 30.04 1017 9 14 0.09 2.29
5:43 pm 17:43 Cloudy with Rain 52 11.1 49 9.4 89 89 ENE 15 24 30.04 1017 8 13 0.09 2.29
5:51 pm 17:51 Cloudy with Light Rain 52 11 48 9 88 88 NE 14 22 30.04 1017 10 16 0.10 2.54
5:53 pm 17:53 Cloudy with Light Rain 52 11.1 49 9.4 89 89 NE 15 24 30.03 1017 10 16 0.11 2.79
6:04 pm 18:04 Cloudy with Rain 52 11.1 49 9.4 89 89 NE 12 19 30.04 1017 7 11 0.02 0.51
6:12 pm 18:12 Cloudy with Rain 52 11.1 49 9.4 89 89 NE 14 22 30.04 1017 8 13 0.04 1.02
6:53 pm 18:53 Cloudy with Light Rain 52 11.1 49 9.4 89 89 NE 10 17 30.03 1017 9 14 0.12 3.05
7:51 pm 19:51 Cloudy with Light Rain 52 11 48 9 88 88 ENE 8 13 30.05 1017 6 10 0.07 1.78
7:53 pm 19:53 Cloudy with Light Rain 52 11.1 49 9.4 89 89 NE 9 15 30.03 1017 6 10 0.07 1.78
8:27 pm 20:27 Cloudy with Rain 52 11.1 50 10 93 93 NE 10 17 30.04 1017 5 8 0.06 1.52
8:46 pm 20:46 Cloudy with Light Rain 52 11.1 49 9.4 89 89 NE 10 17 30.04 1017 5 8 0.08 2.03
8:53 pm 20:53 Cloudy with Rain 52 11.1 49 9.4 89 89 NE 9 15 30.03 1017 5 8 0.09 2.29
9:27 pm 21:27 Cloudy with Rain 52 11.1 50 10 93 93 NE 9 15 30.03 1017 4 6 0.04 1.02
9:53 pm 21:53 Cloudy with Light Rain 52 11.1 50 10 93 93 NE 10 17 30.01 1016 4 6 0.06 1.52
10:05 pm 22:05 Cloudy with Light Rain 52 11.1 50 10 93 93 NE 12 19 30.02 1016 4 6 0.01 0.25
10:12 pm 22:12 Cloudy with Light Rain 52 11.1 50 10 93 93 NE 10 17 30.02 1016 4 6 0.01 0.25
10:20 pm 22:20 Cloudy with Light Rain 52 11.1 50 10 93 93 NE 10 17 30.01 1016 4 6 0.02 0.51
11:02 pm 23:02 Cloudy with Light Rain 52 11.1 50 10 93 93 NE 10 17 30.00 1016 6 10 0.01 0.25
11:10 pm 23:10 Cloudy with Light Rain 52 11.1 50 10 93 93 NE 12 19 29.99 1015 8 13 0.01 0.25
11:17 pm 23:17 Cloudy 52 11.1 50 10 93 93 ENE 12 19 29.99 1015 8 13 0.01 0.25
11:53 pm 23:53 Cloudy 53 11.7 50 10 89 89 NE 12 19 29.96 1015 9 14 0.01 0.25

Powered by AerisWeather